Location: Ailingen
(47.6833°N, 9.5000°E)
Time: 12:19:20
(UTC+00:00)

ATLAS 2AS CENTAUR R/B - Pass Details

Date: 18 November 2025
Orbit: 1047 x 1163 km, 63.7° (Epoch: 11 December)

Event Time Altitude Azimuth Distance (km) Brightness Sun altitude
Rises 19:22:18 0° 318° (NW) 3,841 6.3 -36.8°
Reaches altitude 10° 19:24:58 10° 316° (NW) 2,876 5.5 -37.2°
Enters shadow 19:29:41 46° 296° (WNW) 1,384 3.5 -38.0°
